AXB424 VEGT-VEAT

Flight info

Callsign AXB424
Flight time 0h 30m
Altitude 25000
Route BIPUL1B BIPUL DCT SYT/N0444F240 DCT AAT DCT CD36
Aircraft B38M/M-SDE1FGHILORVWXY/HB1

Departure

Time 2026-05-07 17:58
Airport Lokpriya Gopinath Bordoloi International Airport (VEGT)

Arrival

Time 2026-05-07 18:28
Airport Agartala - Maharaja Bir Bikram Airport (VEAT)
Time Latitude Longitude Altitude Speed Heading
2026-05-07 17:36 26.10513 91.58709 175 ft 0 kts 113°
2026-05-07 17:46 26.10515 91.58703 175 ft 2 kts 114°
2026-05-07 17:46 26.10523 91.58687 175 ft 2 kts 123°
2026-05-07 17:46 26.10533 91.58672 175 ft 2 kts 136°
2026-05-07 17:46 26.10547 91.58662 175 ft 2 kts 164°
2026-05-07 17:47 26.10563 91.58661 175 ft 2 kts 192°
2026-05-07 17:47 26.10575 91.58665 175 ft 1 kts 201°
2026-05-07 17:47 26.10577 91.58666 175 ft 0 kts 202°
2026-05-07 17:52 26.10568 91.58662 175 ft 4 kts 202°
2026-05-07 17:52 26.10537 91.58631 175 ft 1 kts 258°
2026-05-07 17:52 26.10539 91.58625 175 ft 1 kts 291°
2026-05-07 17:52 26.10542 91.58621 175 ft 1 kts 307°
2026-05-07 17:53 26.10546 91.58615 175 ft 1 kts 309°
2026-05-07 17:53 26.10551 91.58607 176 ft 1 kts 301°
2026-05-07 17:53 26.10556 91.58597 176 ft 2 kts 297°
2026-05-07 17:53 26.10561 91.58585 176 ft 2 kts 296°
2026-05-07 17:54 26.10569 91.58566 177 ft 4 kts 293°
2026-05-07 17:54 26.10585 91.58518 177 ft 7 kts 274°
2026-05-07 17:54 26.10547 91.58476 176 ft 10 kts 201°
2026-05-07 17:54 26.10472 91.58438 174 ft 14 kts 201°
2026-05-07 17:55 26.10364 91.58390 172 ft 19 kts 202°
2026-05-07 17:55 26.10237 91.58331 172 ft 23 kts 202°
2026-05-07 17:55 26.10047 91.58245 172 ft 34 kts 202°
2026-05-07 17:55 26.09824 91.58140 174 ft 35 kts 202°
2026-05-07 17:56 26.09657 91.58047 175 ft 21 kts 241°
2026-05-07 17:56 26.09542 91.57961 172 ft 16 kts 180°
2026-05-07 17:56 26.09523 91.58011 171 ft 4 kts 29°
2026-05-07 17:56 26.09552 91.58016 172 ft 7 kts 11°
2026-05-07 17:57 26.09643 91.58059 175 ft 35 kts 24°
2026-05-07 17:57 26.09899 91.58175 175 ft 83 kts 22°
2026-05-07 17:57 26.10959 91.58665 178 ft 163 kts 22°
2026-05-07 17:57 26.12101 91.59161 367 ft 184 kts 19°
2026-05-07 17:58 26.13364 91.59628 1081 ft 189 kts 19°
2026-05-07 17:58 26.14617 91.60116 1808 ft 192 kts 19°
2026-05-07 17:58 26.15841 91.60616 2677 ft 184 kts 20°
2026-05-07 17:58 26.17009 91.61229 3365 ft 190 kts 25°
2026-05-07 17:59 26.18230 91.61922 3827 ft 204 kts 24°
2026-05-07 17:59 26.19533 91.62645 4259 ft 221 kts 28°
2026-05-07 17:59 26.20588 91.63964 4609 ft 243 kts 68°
2026-05-07 17:59 26.20713 91.65872 5006 ft 259 kts 105°
2026-05-07 18:00 26.19773 91.67579 5514 ft 261 kts 143°
2026-05-07 18:00 26.18151 91.68326 6222 ft 256 kts 178°
2026-05-07 18:00 26.16357 91.68339 6935 ft 259 kts 180°
2026-05-07 18:00 26.14538 91.68455 7669 ft 268 kts 178°
2026-05-07 18:01 26.12627 91.68648 8197 ft 284 kts 176°
2026-05-07 18:01 26.10631 91.68898 8835 ft 291 kts 176°
2026-05-07 18:01 26.08650 91.69150 9726 ft 291 kts 176°
2026-05-07 18:01 26.06617 91.69418 10356 ft 300 kts 175°
2026-05-07 18:02 26.02236 91.70060 11101 ft 335 kts 175°
2026-05-07 18:02 25.99863 91.70420 11435 ft 352 kts 175°
2026-05-07 18:02 25.97386 91.70792 11870 ft 364 kts 175°
2026-05-07 18:03 25.94873 91.71156 12636 ft 365 kts 175°
2026-05-07 18:03 25.92338 91.71504 13366 ft 369 kts 176°
2026-05-07 18:03 25.89809 91.71851 14017 ft 373 kts 176°
2026-05-07 18:03 25.87231 91.72202 14685 ft 375 kts 176°
2026-05-07 18:04 25.84629 91.72551 15366 ft 378 kts 177°
2026-05-07 18:04 25.82003 91.72905 16012 ft 381 kts 177°
2026-05-07 18:04 25.79360 91.73261 16643 ft 384 kts 177°
2026-05-07 18:04 25.76696 91.73618 17295 ft 387 kts 178°
2026-05-07 18:05 25.74013 91.73979 17907 ft 390 kts 178°
2026-05-07 18:05 25.71316 91.74341 18478 ft 392 kts 178°
2026-05-07 18:05 25.68628 91.74701 18979 ft 395 kts 178°
2026-05-07 18:05 25.65850 91.75072 19462 ft 399 kts 178°
2026-05-07 18:06 25.63115 91.75438 19942 ft 402 kts 178°
2026-05-07 18:06 25.60324 91.75809 20422 ft 405 kts 178°
2026-05-07 18:06 25.57526 91.76182 20914 ft 408 kts 178°
2026-05-07 18:06 25.54704 91.76557 21392 ft 411 kts 178°
2026-05-07 18:07 25.51852 91.76937 21858 ft 414 kts 178°
2026-05-07 18:07 25.48979 91.77319 22363 ft 416 kts 178°
2026-05-07 18:07 25.46100 91.77701 22822 ft 419 kts 178°
2026-05-07 18:07 25.43197 91.78086 23294 ft 421 kts 178°
2026-05-07 18:08 25.40274 91.78472 23712 ft 423 kts 179°
2026-05-07 18:08 25.37348 91.78860 24114 ft 424 kts 179°
2026-05-07 18:08 25.34455 91.79243 24516 ft 425 kts 179°
2026-05-07 18:08 25.31515 91.79631 24886 ft 426 kts 180°
2026-05-07 18:09 25.28547 91.80024 24926 ft 434 kts 179°
2026-05-07 18:09 25.25517 91.80426 24922 ft 442 kts 179°
2026-05-07 18:09 25.22445 91.80830 24921 ft 449 kts 179°
2026-05-07 18:09 25.19318 91.81240 24909 ft 454 kts 179°
2026-05-07 18:10 25.16167 91.81773 24916 ft 463 kts 174°
2026-05-07 18:10 25.13009 91.82500 24899 ft 467 kts 174°
2026-05-07 18:10 25.09864 91.83201 24619 ft 465 kts 175°
2026-05-07 18:10 25.06708 91.83890 24025 ft 461 kts 174°
2026-05-07 18:11 25.03578 91.84566 23319 ft 458 kts 174°
2026-05-07 18:11 25.01505 91.85012 22751 ft 457 kts 175°
2026-05-07 18:11 24.97339 91.85144 21510 ft 444 kts 193°
2026-05-07 18:11 24.94421 91.84209 20913 ft 428 kts 207°
2026-05-07 18:12 24.91800 91.82741 20275 ft 421 kts 212°
2026-05-07 18:12 24.89251 91.81162 19567 ft 418 kts 213°
2026-05-07 18:12 24.86792 91.79558 18886 ft 415 kts 214°
2026-05-07 18:12 24.84334 91.77919 18203 ft 413 kts 214°
2026-05-07 18:13 24.81883 91.76263 17423 ft 411 kts 214°
2026-05-07 18:13 24.79460 91.74613 16737 ft 408 kts 214°
2026-05-07 18:13 24.77062 91.72977 16073 ft 404 kts 214°
2026-05-07 18:13 24.74679 91.71349 15418 ft 401 kts 214°
2026-05-07 18:14 24.72320 91.69738 14768 ft 398 kts 214°
2026-05-07 18:14 24.70772 91.68682 14337 ft 397 kts 214°
2026-05-07 18:14 24.68429 91.67082 13712 ft 395 kts 214°
2026-05-07 18:14 24.66095 91.65491 12986 ft 393 kts 214°
2026-05-07 18:15 24.63786 91.63917 12349 ft 390 kts 214°
2026-05-07 18:15 24.60728 91.61832 11746 ft 379 kts 214°
2026-05-07 18:15 24.58559 91.60355 11527 ft 366 kts 214°
2026-05-07 18:15 24.56425 91.58901 11281 ft 355 kts 214°
2026-05-07 18:16 24.55022 91.57947 11140 ft 347 kts 214°
2026-05-07 18:16 24.52364 91.56139 10893 ft 333 kts 214°
2026-05-07 18:16 24.51072 91.55260 10785 ft 325 kts 214°
2026-05-07 18:16 24.49187 91.53978 10636 ft 314 kts 214°
2026-05-07 18:17 24.47359 91.52735 10477 ft 303 kts 214°
2026-05-07 18:17 24.45592 91.51533 10300 ft 295 kts 214°
2026-05-07 18:17 24.43876 91.50368 10134 ft 286 kts 214°
2026-05-07 18:17 24.41659 91.48863 9793 ft 282 kts 214°
2026-05-07 18:18 24.39997 91.47737 9395 ft 282 kts 214°
2026-05-07 18:18 24.38862 91.46966 9135 ft 282 kts 214°
2026-05-07 18:18 24.37194 91.45834 8741 ft 281 kts 214°
2026-05-07 18:18 24.35561 91.44726 8406 ft 279 kts 214°
2026-05-07 18:19 24.33911 91.43608 8037 ft 279 kts 213°
2026-05-07 18:19 24.32263 91.42489 7680 ft 279 kts 213°
2026-05-07 18:19 24.30609 91.41369 7305 ft 279 kts 213°
2026-05-07 18:19 24.28431 91.39895 6847 ft 278 kts 213°
2026-05-07 18:20 24.27319 91.39142 6596 ft 278 kts 213°
2026-05-07 18:20 24.25680 91.38032 6288 ft 277 kts 212°
2026-05-07 18:20 24.24055 91.36935 5903 ft 279 kts 212°
2026-05-07 18:20 24.22403 91.35815 5528 ft 280 kts 213°
2026-05-07 18:21 24.20751 91.34695 5208 ft 279 kts 212°
2026-05-07 18:21 24.19093 91.33573 4815 ft 280 kts 212°
2026-05-07 18:21 24.17472 91.32480 4545 ft 267 kts 212°
2026-05-07 18:21 24.15933 91.31441 4456 ft 251 kts 212°
2026-05-07 18:22 24.14497 91.30467 4393 ft 232 kts 212°
2026-05-07 18:22 24.13619 91.29875 4370 ft 217 kts 212°
2026-05-07 18:22 24.12461 91.29095 4195 ft 204 kts 212°
2026-05-07 18:22 24.11298 91.28311 4050 ft 190 kts 212°
2026-05-07 18:23 24.10225 91.27587 3903 ft 176 kts 212°
2026-05-07 18:23 24.09202 91.26899 3634 ft 174 kts 212°
2026-05-07 18:23 24.08147 91.26202 3185 ft 178 kts 206°
2026-05-07 18:23 24.06990 91.25747 2785 ft 176 kts 193°
2026-05-07 18:24 24.05772 91.25544 2718 ft 182 kts 187°
2026-05-07 18:24 24.04490 91.25401 2694 ft 187 kts 185°
2026-05-07 18:24 24.03243 91.25284 2572 ft 174 kts 185°
2026-05-07 18:24 24.02054 91.25184 2383 ft 170 kts 184°
2026-05-07 18:25 24.00889 91.25087 2153 ft 167 kts 184°
2026-05-07 18:25 23.99727 91.24996 1969 ft 167 kts 185°
2026-05-07 18:25 23.98590 91.24896 1754 ft 162 kts 184°
2026-05-07 18:25 23.97529 91.24814 1561 ft 146 kts 184°
2026-05-07 18:26 23.96530 91.24727 1369 ft 143 kts 184°
2026-05-07 18:26 23.95541 91.24643 1170 ft 143 kts 185°
2026-05-07 18:26 23.94549 91.24567 982 ft 146 kts 184°
2026-05-07 18:27 23.94386 91.24554 940 ft 147 kts 185°
2026-05-07 18:27 23.93407 91.24470 770 ft 143 kts 184°
2026-05-07 18:27 23.92422 91.24389 613 ft 142 kts 185°
2026-05-07 18:27 23.91449 91.24308 422 ft 144 kts 183°
2026-05-07 18:28 23.90444 91.24249 240 ft 145 kts 184°
2026-05-07 18:28 23.89442 91.24156 63 ft 142 kts 185°
2026-05-07 18:28 23.88643 91.24079 60 ft 81 kts 184°
2026-05-07 18:28 23.88240 91.24046 66 ft 45 kts 184°
2026-05-07 18:29 23.88073 91.24034 60 ft 18 kts 183°
2026-05-07 18:29 23.87939 91.24021 67 ft 21 kts 186°
2026-05-07 18:29 23.87799 91.24014 62 ft 18 kts 165°
2026-05-07 18:29 23.87704 91.24038 64 ft 7 kts 237°
2026-05-07 18:30 23.87712 91.24008 66 ft 3 kts 338°
2026-05-07 18:30 23.87750 91.24006 64 ft 10 kts
2026-05-07 18:30 23.87856 91.24015 63 ft 21 kts
2026-05-07 18:30 23.88022 91.24029 63 ft 26 kts
2026-05-07 18:31 23.88208 91.24043 63 ft 27 kts
2026-05-07 18:31 23.88397 91.24059 62 ft 24 kts
2026-05-07 18:31 23.88493 91.24107 60 ft 14 kts 85°
2026-05-07 18:31 23.88490 91.24201 59 ft 11 kts 94°
2026-05-07 18:32 23.88493 91.24267 59 ft 8 kts 55°
2026-05-07 18:32 23.88550 91.24283 63 ft 8 kts
2026-05-07 18:32 23.88610 91.24288 64 ft 9 kts
2026-05-07 18:32 23.88633 91.24298 63 ft 2 kts 74°
2026-05-07 18:33 23.88635 91.24317 63 ft 3 kts 90°
2026-05-07 18:33 23.88634 91.24341 66 ft 1 kts 92°
2026-05-07 18:33 23.88634 91.24342 66 ft 0 kts 92°